Station NWWH1 - 1611400 - Nawiliwili, HI Image indicating link to RSS feed of recent meteorological observations for station NWWH1


Conditions at NWWH1 as of
(11:48 am HAST)
2148 GMT on 06/12/2024:
     

Click on the graph icon in the table below to see a time series plot of the last five days of that observation.

5-day plot - Wind Direction Wind Direction (WDIR):ENE ( 60 deg true )
5-day plot - Wind Speed Wind Speed (WSPD): 7.0 kts
5-day plot - Wind Gust Wind Gust (GST): 8.9 kts
5-day plot - Atmospheric Pressure Atmospheric Pressure (PRES):30.12 in
5-day plot - Water Temperature Water Temperature (WTMP): 80.1 °F
5-day plot - Wind Speed at 10 Meters Wind Speed at 10 meters (WSPD10M): 7.8 kts
5-day plot - Wind Speed at 20 Meters Wind Speed at 20 meters (WSPD20M): 7.8 kts
5-day plot -  Wind Speed, Wind Gust and Atmospheric Pressure Combined plot of Wind Speed, Gust, and Air Pressure
NOS Water Level Observation Network Water Level
Previous observations
TIME
(HAST)
5-day plot - Wind Direction
WDIR
 
5-day plot - Wind Speed
WSPD
kts
5-day plot - Wind Gust
GST
kts
5-day plot - Wave Height
WVHT
ft
5-day plot - Dominant Wave Period
DPD
sec
5-day plot - Average Wave Period
APD
sec
5-day plot - Mean Wave Direction
MWD
 
5-day plot - Atmospheric Pressure
PRES
in
5-day plot - Pressure Tendency
PTDY
in
5-day plot - Air Temperature
ATMP
°F
5-day plot - Water Temperature
WTMP
°F
5-day plot - Dew Point
DEWP
°F
5-day plot - Salinity
SAL
psu
5-day plot - Visibility
VIS
nmi
5-day plot - Tide (above MLLW)
TIDE
ft
2024-06-12 11:42 amENE 7.0 11.1----30.12-- 80.1----
2024-06-12 11:36 am NE 8.9 15.9----30.12-- 80.1----
2024-06-12 11:30 am-------30.12- 77.2 80.1----
2024-06-12 11:24 am-------30.12- 78.4 80.1----
2024-06-12 11:18 am NE 13.0 17.1----30.12- 78.8 80.1----
2024-06-12 11:12 amENE 13.0 15.9----30.12- 78.4 80.1----
2024-06-12 11:06 am NE 11.1 15.0----30.12- 79.0 80.1----
2024-06-12 11:00 am NE 13.0 17.1----30.12+0.00- 80.1----
2024-06-12 10:54 am NE 12.0 15.9----30.12-- 80.1----
2024-06-12 10:48 am NE 12.0 15.0----30.11-- 80.1----
2024-06-12 10:42 amENE 12.0 15.0----30.11-- 80.1----
2024-06-12 10:36 am NE 12.0 14.0----30.11-- 80.1----
2024-06-12 10:30 am NE 12.0 18.1----30.12- 78.4 79.9----
2024-06-12 10:24 am NE 9.9 15.0----30.12- 78.6 80.1----
2024-06-12 10:18 am NE 13.0 17.1----30.12- 78.1 80.1----
2024-06-12 10:12 am NE 12.0 15.9----30.12- 78.8 80.1----
2024-06-12 10:06 amENE 12.0 18.1----30.12- 78.4 80.1----
2024-06-12 10:00 am NE 11.1 17.1----30.12+0.02- 80.2----
2024-06-12 09:54 amENE 12.0 15.0----30.12-- 80.1----
2024-06-12 09:48 amENE 12.0 18.1----30.12-- 80.1----
2024-06-12 09:42 amENE 13.0 15.9----30.12-- 80.1----
2024-06-12 09:36 amENE 8.9 15.0----30.12-- 80.1----
2024-06-12 09:30 am E 8.9 15.0----30.12- 75.0 80.1----
2024-06-12 09:24 am E 11.1 17.1----30.12- 75.0 80.1----
2024-06-12 09:18 amNNE 7.0 11.1----30.12- 77.0 79.9----
2024-06-12 09:12 amNNE 5.1 8.9----30.12- 76.6 80.1----
2024-06-12 09:06 amNNE 6.0 11.1----30.13- 75.7 80.1----
2024-06-12 09:00 amNNE 8.0 12.0----30.13+0.04 75.2 80.1----
2024-06-12 08:54 amNNE 9.9 12.0----30.13- 74.7 80.1----
2024-06-12 08:48 amENE 8.9 14.0----30.13-- 80.1----
2024-06-12 08:42 amENE 11.1 17.1----30.12-- 80.1----
2024-06-12 08:36 amENE 12.0 15.0----30.12-- 80.1----
2024-06-12 08:30 am NE 8.9 13.0----30.12- 77.2 79.9----
2024-06-12 08:24 am NE 8.0 12.0----30.12- 77.7 79.9----
2024-06-12 08:18 am NE 9.9 14.0----30.12-- 79.9----
2024-06-12 08:12 am NE 11.1 15.0----30.12-- 79.9----
2024-06-12 08:06 am NE 7.0 11.1----30.12-- 79.9----
2024-06-12 08:00 amNNE 6.0 8.9----30.12+0.05- 79.9----
2024-06-12 07:54 amNNE 8.0 12.0----30.12-- 79.9----
2024-06-12 07:48 am NE 7.0 14.0----30.12-------
2024-06-12 07:42 am NE 8.9 15.9----30.11-------
2024-06-12 07:36 amENE 8.9 12.0----30.11-------
2024-06-12 07:30 amENE 11.1 14.0----30.11- 75.6 79.9----
2024-06-12 07:24 amENE 12.0 15.0----30.11- 76.6 79.9----
2024-06-12 07:18 amENE 11.1 15.9----30.11-- 79.9----
2024-06-12 07:12 amENE 12.0 14.0----30.10-- 79.9----
2024-06-12 07:06 amENE 12.0 15.9----30.10-- 79.9----
2024-06-12 07:00 am-------30.10+0.02 76.6 79.9----
2024-06-12 06:54 am-------30.10- 76.3 79.9----
2024-06-12 06:48 amENE 13.0 17.1----30.10-- 79.9----
2024-06-12 06:42 am NE 11.1 15.0----30.10-- 79.9----
2024-06-12 06:36 am NE 9.9 15.0----30.10-- 79.9----
2024-06-12 06:30 amENE 13.0 15.9----30.09- 76.1-----
2024-06-12 06:24 amENE 8.9 12.0----30.09- 75.9-----
2024-06-12 06:18 am NE 9.9 13.0----30.09-------
2024-06-12 06:12 amENE 12.0 14.0----30.09-------
2024-06-12 06:06 amENE 12.0 14.0----30.09-------
2024-06-12 06:00 am-------30.08+0.00 75.9 79.9----
2024-06-12 05:54 am-------30.08- 75.9 79.9----
2024-06-12 05:48 am NE 9.9 13.0----30.08- 75.6 79.9----
2024-06-12 05:42 am NE 8.9 13.0----30.08- 75.6 79.9----
2024-06-12 05:36 amENE 11.1 13.0----30.08- 75.6 79.9----
2024-06-12 05:30 am NE 8.9 12.0----30.08- 75.2 79.9----
2024-06-12 05:24 am NE 8.9 13.0----30.08- 74.8 79.9----
2024-06-12 05:18 am NE 12.0 15.9----30.08- 74.8 79.9----
2024-06-12 05:12 am NE 8.0 15.9----30.08- 75.7 79.9----
2024-06-12 05:06 am NE 13.0 17.1----30.07- 75.6 79.9----
2024-06-12 05:00 amENE 14.0 15.9----30.07-0.02- 79.9----
2024-06-12 04:54 amENE 9.9 12.0----30.07-- 79.9----
2024-06-12 04:48 am NE 9.9 14.0----30.07-- 79.9----
2024-06-12 04:42 amENE 12.0 15.0----30.07-- 79.9----
2024-06-12 04:36 amENE 11.1 14.0----30.07-- 79.9----
2024-06-12 04:30 amENE 8.9 12.0----30.07- 75.6 79.9----
2024-06-12 04:24 am NE 7.0 9.9----30.08- 75.4 79.9----
2024-06-12 04:18 am NE 8.9 12.0----30.08-- 79.9----
2024-06-12 04:12 am NE 7.0 9.9----30.08-- 79.9----
2024-06-12 04:06 amENE 8.0 12.0----30.08-- 79.9----
2024-06-12 04:00 amENE 8.0 11.1----30.08-0.03 74.8 79.9----
2024-06-12 03:54 am NE 9.9 13.0----30.08- 74.5 79.9----
2024-06-12 03:48 amNNE 6.0 8.0----30.08-- 80.1----
2024-06-12 03:42 amNNE 7.0 9.9----30.08-- 80.1----
2024-06-12 03:36 am NE 8.0 12.0----30.08-- 80.1----
2024-06-12 03:30 am NE 12.0 15.9----30.08- 74.3 80.1----
2024-06-12 03:24 am NE 8.0 12.0----30.08- 75.2 80.1----
2024-06-12 03:18 am NE 8.9 13.0----30.08- 75.0 79.9----
2024-06-12 03:12 am NE 8.9 13.0----30.08- 74.8 79.9----
2024-06-12 03:06 am NE 8.9 12.0----30.08- 74.5 79.9----
2024-06-12 03:00 am NE 11.1 13.0----30.08-0.04 74.3 79.9----
2024-06-12 02:54 am NE 7.0 9.9----30.08- 75.2 79.9----
2024-06-12 02:48 am NE 8.9 12.0----30.08- 75.0 79.9----
2024-06-12 02:42 am NE 7.0 9.9----30.09- 74.8 80.1----
2024-06-12 02:36 am NE 8.0 11.1----30.09- 74.7 80.1----
2024-06-12 02:30 am NE 6.0 8.0----30.09- 73.9 80.1----
2024-06-12 02:24 am NE 6.0 9.9----30.09- 73.8 79.9----
2024-06-12 02:18 am NE 8.9 13.0----30.09- 73.8 79.9----
2024-06-12 02:12 am NE 9.9 13.0----30.09- 74.7 80.1----
2024-06-12 02:06 am NE 8.0 11.1----30.09- 74.3 80.1----
2024-06-12 02:00 am NE 7.0 12.0----30.09-0.05 74.3 80.1----
2024-06-12 01:54 amNNE 8.0 9.9----30.09- 74.3 80.1----
2024-06-12 01:48 am NE 7.0 14.0----30.09-- 80.1----
2024-06-12 01:42 amENE 11.1 14.0----30.09-- 80.1----
2024-06-12 01:36 am NE 9.9 11.1----30.10-- 80.1----
2024-06-12 01:30 am NE 7.0 12.0----30.10- 73.4 80.1----
2024-06-12 01:24 am NE 9.9 15.0----30.10- 73.0 80.1----
2024-06-12 01:18 am NE 15.0 20.0----30.10- 73.0 80.1----
2024-06-12 01:12 amENE 19.0 22.0----30.10- 74.3 80.1----
2024-06-12 01:06 am NE 8.9 12.0----30.10- 74.7 80.1----
2024-06-12 01:00 amENE 7.0 11.1----30.11-0.03 74.8 80.2----
2024-06-12 12:54 am NE 9.9 13.0----30.11- 74.5 80.1----
2024-06-12 12:48 amNNE 9.9 13.0----30.11-- 80.2----
2024-06-12 12:42 am NE 8.0 13.0----30.11-- 80.2----
2024-06-12 12:36 amNNE 9.9 15.0----30.11-- 80.1----
2024-06-12 12:30 amENE 12.0 15.9----30.11- 75.6 80.1----
2024-06-12 12:24 am NE 6.0 8.9----30.11- 74.3 80.1----
2024-06-12 12:18 amNNE 7.0 12.0----30.12-- 80.1----
2024-06-12 12:12 am NE 7.0 8.9----30.12-- 80.2----
2024-06-12 12:06 amENE 7.0 11.1----30.12-- 80.2----
2024-06-12 12:00 am NE 6.0 9.9----30.12+0.00 74.1 80.2----
2024-06-11 11:54 pm NE 6.0 9.9----30.13- 73.9 80.2----
2024-06-11 11:48 pm NE 8.0 11.1----30.13-- 80.2----
2024-06-11 11:42 pmENE 9.9 15.0----30.13-- 80.2----
2024-06-11 11:36 pm E 13.0 18.1----30.13-- 80.2----
2024-06-11 11:30 pmENE 14.0 18.1----30.13- 74.8 80.1----
2024-06-11 11:24 pmENE 15.0 18.1----30.13- 75.0 80.1----
2024-06-11 11:18 pmENE 13.0 15.9----30.13- 74.7 80.1----
2024-06-11 11:12 pmENE 13.0 15.0----30.14- 74.5 80.1----
2024-06-11 11:06 pmENE 8.9 12.0----30.14- 74.1 80.1----
2024-06-11 11:00 pmENE 11.1 18.1----30.14+0.03- 80.1----
2024-06-11 10:54 pmENE 14.0 18.1----30.14-- 80.1----
2024-06-11 10:48 pm NE 8.9 11.1----30.14-- 80.1----
2024-06-11 10:42 pm NE 8.0 12.0----30.14-- 80.1----
2024-06-11 10:36 pm NE 8.9 12.0----30.14-- 80.1----
2024-06-11 10:30 pm NE 6.0 8.9----30.14- 75.6 80.1----
2024-06-11 10:24 pm NE 7.0 9.9----30.14- 75.7 80.1----
2024-06-11 10:18 pm NE 8.9 13.0----30.14- 75.7 79.9----
2024-06-11 10:12 pm NE 12.0 15.0----30.14- 75.7 79.7----
2024-06-11 10:06 pmENE 15.0 18.1----30.14- 75.4 79.9----
2024-06-11 10:00 pmENE 15.9 20.0----30.14+0.04- 80.1----
2024-06-11 09:54 pmENE 19.0 22.9----30.14-- 80.1----
2024-06-11 09:48 pm NE 7.0 12.0----30.14- 75.2 80.2----
2024-06-11 09:42 pm NE 11.1 15.9----30.13- 74.5 80.2----
2024-06-11 09:36 pm NE 7.0 9.9----30.13- 75.0 80.2----
2024-06-11 09:30 pm NE 7.0 13.0----30.13- 74.7 80.2----
2024-06-11 09:24 pm NE 11.1 22.0----30.13- 74.7 80.2----
2024-06-11 09:18 pm NE 12.0 15.9----30.13- 76.8 80.1----
2024-06-11 09:12 pmENE 12.0 17.1----30.13- 76.6 80.4----
2024-06-11 09:06 pm NE 9.9 15.0----30.12- 76.8 80.4----
2024-06-11 09:00 pm NE 12.0 15.0----30.12+0.04 76.8 80.1----
2024-06-11 08:54 pm NE 12.0 15.9----30.12- 76.6 80.1----
2024-06-11 08:48 pm NE 9.9 13.0----30.12- 76.6 80.1----
2024-06-11 08:42 pm NE 11.1 17.1----30.12- 76.5 80.1----
2024-06-11 08:36 pm NE 12.0 17.1----30.12- 76.5 80.1----
2024-06-11 08:30 pm NE 11.1 15.0----30.12-- 80.1----
2024-06-11 08:24 pmENE 11.1 15.9----30.12-- 79.9----
2024-06-11 08:18 pm NE 8.0 12.0----30.12- 75.0 79.9----
2024-06-11 08:12 pm NE 9.9 17.1----30.12- 74.8 79.9----
2024-06-11 08:06 pm NE 15.0 18.1----30.11- 75.2 79.9----
2024-06-11 08:00 pm NE 8.9 15.0----30.11+0.04 75.6 79.9----
2024-06-11 07:54 pm NE 12.0 15.9----30.11- 75.0 79.9----
2024-06-11 07:48 pmENE 13.0 17.1----30.11-- 79.9----
2024-06-11 07:42 pmENE 17.1 20.0----30.11-- 79.9----
2024-06-11 07:36 pm NE 9.9 15.0----30.10-- 79.9----
2024-06-11 07:30 pm NE 9.9 13.0----30.10-- 79.9----
2024-06-11 07:24 pm NE 12.0 17.1----30.10-- 79.9----
2024-06-11 07:18 pm-------30.10- 76.6 79.9----
2024-06-11 07:12 pm-------30.09- 76.6 79.9----
2024-06-11 07:06 pm-------30.09- 76.6 79.9----
2024-06-11 07:00 pm NE 12.0 15.9----30.09+0.02 76.6 79.9----
2024-06-11 06:54 pm NE 9.9 14.0----30.09- 76.5 79.9----
2024-06-11 06:48 pm NE 8.9 13.0----30.09- 75.9 79.9----
2024-06-11 06:42 pm NE 8.9 13.0----30.09- 75.6 79.9----
2024-06-11 06:36 pm NE 9.9 18.1----30.09- 75.7 79.9----
2024-06-11 06:30 pmNNE 15.0 19.0----30.09- 76.3 79.9----
2024-06-11 06:24 pmNNE 11.1 15.0----30.09- 76.5 79.9----
2024-06-11 06:18 pm NE 11.1 15.9----30.08- 76.6 79.9----
2024-06-11 06:12 pm NE 9.9 14.0----30.08- 76.8 79.9----
2024-06-11 06:06 pm NE 11.1 14.0----30.08- 76.6 79.9----
2024-06-11 06:00 pm NE 11.1 18.1----30.08-0.01- 79.9----
2024-06-11 05:54 pm NE 9.9 19.0----30.08-- 79.9----
2024-06-11 05:48 pm NE 14.0 20.0----30.07- 77.2 79.9----
2024-06-11 05:42 pm NE 8.9 15.9----30.07- 77.5 79.9----
2024-06-11 05:36 pmNNE 12.0 15.9----30.07- 77.7 79.9----
2024-06-11 05:30 pmNNE 12.0 15.0----30.07-- 79.9----
2024-06-11 05:24 pmNNE 12.0 15.0----30.07-- 79.9----
2024-06-11 05:18 pm NE 12.0 15.9----30.07- 77.7 79.9----
2024-06-11 05:12 pm NE 13.0 17.1----30.07- 77.4 79.9----
2024-06-11 05:06 pm NE 11.1 14.0----30.07- 77.5 79.9----
2024-06-11 05:00 pmNNE 11.1 15.0----30.07-0.03 77.0 79.9----
2024-06-11 04:54 pm NE 11.1 15.0----30.07- 77.2 79.9----
2024-06-11 04:48 pm NE 9.9 17.1----30.07-- 79.9----
2024-06-11 04:42 pm NE 11.1 14.0----30.07-- 79.9----
2024-06-11 04:36 pm NE 11.1 15.9----30.07-- 79.9----
2024-06-11 04:30 pmENE 11.1 14.0----30.07- 78.3 79.9----
2024-06-11 04:24 pm NE 8.9 15.0----30.07- 78.1 79.9----
2024-06-11 04:18 pmNNE 11.1 15.0----30.07- 77.7 79.9----
2024-06-11 04:12 pm NE 9.9 15.9----30.08- 77.7 79.9----
2024-06-11 04:06 pm NE 12.0 15.0----30.08- 77.9 79.9----
2024-06-11 04:00 pm NE 12.0 17.1----30.08-0.04 78.4 79.9----
2024-06-11 03:54 pm NE 9.9 14.0----30.08- 78.6 79.9----
2024-06-11 03:48 pm NE 11.1 15.9----30.08-- 79.9----
2024-06-11 03:42 pm NE 12.0 14.0----30.09-- 79.9----
2024-06-11 03:36 pm NE 13.0 15.9----30.09-- 79.9----
2024-06-11 03:30 pm NE 12.0 17.1----30.09-------
2024-06-11 03:24 pmNNE 12.0 18.1----30.09-------
2024-06-11 03:18 pmNNE 14.0 18.1----30.09-------
2024-06-11 03:12 pm NE 9.9 15.9----30.09-------
2024-06-11 03:06 pm NE 12.0 15.9----30.09-------
2024-06-11 03:00 pm-------30.09-0.04 79.2 79.9----
2024-06-11 02:54 pm-------30.09- 78.1 80.1----
2024-06-11 02:48 pm NE 11.1 15.9----30.09-- 79.9----
2024-06-11 02:42 pm NE 11.1 15.0----30.09-- 79.9----
2024-06-11 02:36 pm NE 12.0 15.9----30.10-- 79.9----
2024-06-11 02:30 pm NE 11.1 15.9----30.10-- 79.9----
2024-06-11 02:24 pm NE 11.1 14.0----30.10-- 79.9----
2024-06-11 02:18 pm NE 12.0 17.1----30.10- 78.6 79.9----
2024-06-11 02:12 pm NE 11.1 15.9----30.10- 79.0 79.9----
2024-06-11 02:06 pm NE 13.0 15.9----30.10- 78.6 79.9----
2024-06-11 02:00 pm-------30.11-0.03 79.2 79.9----
2024-06-11 01:54 pm-------30.11- 79.2 79.9----
2024-06-11 01:48 pm NE 11.1 15.0----30.11-------
2024-06-11 01:42 pmENE 11.1 15.0----30.11-------
2024-06-11 01:36 pm NE 12.0 15.0----30.11-------
2024-06-11 01:30 pm NE 9.9 15.0----30.11-- 79.9----
2024-06-11 01:24 pm NE 12.0 15.0----30.11-- 79.9----
2024-06-11 01:18 pm NE 12.0 15.0----30.11- 79.2 79.9----
2024-06-11 01:12 pm NE 11.1 15.0----30.12- 79.3 79.9----
2024-06-11 01:06 pm NE 11.1 15.0----30.11- 79.2 79.9----
2024-06-11 01:00 pm NE 9.9 15.0----30.12-0.03 79.7 79.9----
2024-06-11 12:54 pm NE 11.1 15.0----30.12- 79.0 79.9----
2024-06-11 12:48 pmENE 12.0 14.0----30.12- 79.0 79.9----
2024-06-11 12:42 pm NE 11.1 15.0----30.12- 78.8 79.9----
2024-06-11 12:36 pm NE 9.9 14.0----30.12- 79.2 79.9----
2024-06-11 12:30 pm NE 9.9 14.0----30.12- 79.0 79.9----
2024-06-11 12:24 pmENE 11.1 15.0----30.13- 79.0 79.9----
2024-06-11 12:18 pmENE 11.1 15.0----30.13- 78.8 79.9----
2024-06-11 12:12 pmENE 13.0 15.9----30.13- 78.4 79.9----
2024-06-11 12:06 pmENE 11.1 15.9----30.13- 78.6 79.9----
2024-06-11 12:00 pmENE 12.0 15.0----30.13-0.01- 79.9----
2024-06-11 11:54 amENE 13.0 15.9----30.13-- 79.9----